Location: Newark
(49.4642°N, 2.1122°E)
Time: 18:30:55
(UTC+00:00)

AO-85 - Pass Details

Date: 05 July 2020
Orbit: 521 x 762 km, 64.8° (Epoch: 12 March)

Event Time Altitude Azimuth Distance (km) Brightness Sun altitude
Rises 21:23:46 0° 301° (WNW) 2,729 ? -10.3°
Reaches altitude 10° 21:27:35 10° 265° (W) 1,878 ? -10.6°
Maximum altitude 21:28:41 11° 250° (WSW) 1,834 ? -10.8°
Drops below altitude 10° 21:29:49 10° 234° (SW) 1,909 ? -10.9°
Enters shadow 21:33:27 - 200° (SSW) 2,755 ? -11.2°
